Preston, Minnesota, United States (55965)
Lat: 43.67N, Lon: 92.08W
Wx Zone: MNZ095
Local Info
Past Weather Observations for Today

NOTE: This archive is for the closest National Weather Service station to Preston. Information may differ from the station used for current weather conditions.

Click here for Long-term Archive

Time Weather Temperature Dewpoint Humidity Pressure Winds Precip Visibility
09:55
Clear
61°F / 16°C 54°F / 12°C 77% 30.3 in
(1026 mb)
W 9.2 mph
(W 15 kph)
- 10SM
09:36
Clear
61°F / 16°C 52°F / 11°C 72% 30.3 in
(1026 mb)
SSW 9.2 mph
(SSW 15 kph)
- 10SM
09:15
Clear
59°F / 15°C 54°F / 12°C 82% 30.3 in
(1026 mb)
SSW 10.4 mph
(SSW 17 kph)
- 10SM
08:55
Clear
59°F / 15°C 54°F / 12°C 82% 30.3 in
(1026 mb)
SSW 8.1 mph
(SSW 13 kph)
- 10SM
08:36
Clear
57°F / 14°C 54°F / 12°C 88% 30.3 in
(1026 mb)
SW 4.6 mph
(SW 7 kph)
- 10SM
08:15
Clear
55°F / 13°C 52°F / 11°C 88% 30.3 in
(1026 mb)
SSW 4.6 mph
(SSW 7 kph)
- 10SM
07:56
Clear
54°F / 12°C 52°F / 11°C 94% 30.3 in
(1026 mb)
Calm - 10SM
07:36
Clear
50°F / 10°C 50°F / 10°C 100% 30.3 in
(1026 mb)
Calm - 10SM
07:15
Clear
48°F / 9°C 48°F / 9°C 100% 30.27 in
(1025 mb)
Calm - 10SM
06:56
Clear
46°F / 8°C 46°F / 8°C 100% 30.27 in
(1025 mb)
SSE 3.5 mph
(SSE 6 kph)
- 10SM
06:36
Clear
45°F / 7°C 45°F / 7°C 100% 30.27 in
(1025 mb)
Calm - 10SM
06:15
Clear
45°F / 7°C 45°F / 7°C 100% 30.27 in
(1025 mb)
Calm - 10SM
05:56
Clear
43°F / 6°C 43°F / 6°C 100% 30.27 in
(1025 mb)
SW 3.5 mph
(SW 6 kph)
- 7SM
05:36
Clear
46°F / 8°C 46°F / 8°C 100% 30.27 in
(1025 mb)
Calm - 10SM
05:15
Clear
45°F / 7°C 45°F / 7°C 100% 30.27 in
(1025 mb)
W 4.6 mph
(W 7 kph)
- 10SM
04:56
Clear
46°F / 8°C 46°F / 8°C 100% 30.27 in
(1025 mb)
SSW 3.5 mph
(SSW 6 kph)
- 10SM
04:36
Clear
46°F / 8°C 46°F / 8°C 100% 30.24 in
(1024 mb)
Calm - 10SM
04:15
Clear
46°F / 8°C 46°F / 8°C 100% 30.24 in
(1024 mb)
NW 4.6 mph
(NW 7 kph)
- 10SM
03:56
Clear
45°F / 7°C 45°F / 7°C 100% 30.24 in
(1024 mb)
Calm - 10SM
03:36
Clear
48°F / 9°C 48°F / 9°C 100% 30.24 in
(1024 mb)
W 3.5 mph
(W 6 kph)
- 10SM
03:15
Clear
46°F / 8°C 46°F / 8°C 100% 30.24 in
(1024 mb)
Calm - 10SM
02:56
Clear
46°F / 8°C 46°F / 8°C 100% 30.24 in
(1024 mb)
NW 3.5 mph
(NW 6 kph)
- 10SM
02:36
Clear
46°F / 8°C 46°F / 8°C 100% 30.24 in
(1024 mb)
NW 4.6 mph
(NW 7 kph)
- 10SM
02:15
Clear
46°F / 8°C 46°F / 8°C 100% 30.24 in
(1024 mb)
NW 5.8 mph
(NW 9 kph)
- 10SM
01:56
Clear
46°F / 8°C 46°F / 8°C 100% 30.24 in
(1024 mb)
NW 4.6 mph
(NW 7 kph)
- 10SM
01:35
Clear
46°F / 8°C 46°F / 8°C 100% 30.24 in
(1024 mb)
WNW 6.9 mph
(WNW 11 kph)
- 10SM
01:15
Clear
46°F / 8°C 46°F / 8°C 100% 30.24 in
(1024 mb)
WNW 6.9 mph
(WNW 11 kph)
- 10SM
00:55
Clear
46°F / 8°C 46°F / 8°C 100% 30.24 in
(1024 mb)
NW 5.8 mph
(NW 9 kph)
- 10SM
00:35
Clear
48°F / 9°C 46°F / 8°C 94% 30.24 in
(1024 mb)
NW 3.5 mph
(NW 6 kph)
- 10SM
00:16
Clear
48°F / 9°C 48°F / 9°C 100% 30.24 in
(1024 mb)
NW 3.5 mph
(NW 6 kph)
- 10SM
Time Weather Temperature Dewpoint Humidity Pressure Winds Precip Visibility


Weather for websites

WeatherForYou.com, LLC is not responsible for any damages or problems caused by this service. Current weather conditions are obtained from the closest station including government and personal stations which may have varying degrees of accuracy. Weather forecasts are derived from the NOAA NDFD. Like all things, this site belongs to Jesus Christ... He just trusts me to maintain it. If you have any questions or comments email webmaster@weatherforyou.com

Copyright © 2014, WeatherForYou.com LLC. All rights reserved.